Location: Ca�n Batista
(41.4099°N, 1.7752°E)
Time: 14:44:18
(UTC+00:00)

Cosmos 1503 Rocket - Pass Details

Date: 03 March 2021
Orbit: 753 x 790 km, 74.0° (Epoch: 21 April)

Event Time Altitude Azimuth Distance (km) Brightness Sun altitude
Rises 18:30:05 0° 346° (NNW) 3,226 7.4 -9.1°
Reaches altitude 10° 18:32:36 10° 353° (N) 2,292 6.6 -9.5°
Maximum altitude 18:37:31 43° 65° (ENE) 1,055 4.3 -10.4°
Drops below altitude 10° 18:42:25 10° 137° (SE) 2,271 6.0 -11.4°
Enters shadow 18:44:32 - 143° (SE) 3,065 6.7 -11.8°
